Orbital Elements at Epoch 2459200.5 (2020-Dec-17.0) TDB
Reference: JPL 12 (heliocentric ecliptic J2000)
Element | Value | Uncertainty (1-sigma) | Units |
e | .2848055234177792 | 8.0882e-08 | |
a | 2.597018340243439 | 2.8177e-08 | au |
q | 1.857373172524834 | 2.2482e-07 | au |
i | 3.613169413262879 | 6.3813e-06 | deg |
node | 39.94240654262891 | 0.00011431 | deg |
peri | 334.2621528923128 | 0.00011544 | deg |
M | 245.7975001689949 | 2.2908e-05 | deg |
tp | 2459685.435593216607 (2022-Apr-15.93559322) | 0.00010445 | TDB |
period | 1528.660176583824 4.19 | 2.4878e-05 6.811e-08 | d yr |
n | .2355003456716657 | 3.8326e-09 | deg/d |
Q | 3.336663507962045 | 3.6201e-08 | au |
|
| | Orbit Determination Parameters
Additional Information
|